Location: Binningen
(47.7924°N, 8.7261°E)
Time: 04:16:48
(UTC+00:00)

NOSS 2-1 (C) - Pass Details

Date: 17 May 2021
Orbit: 430 x 1771 km, 63.3° (Epoch: 26 May)

Event Time Altitude Azimuth Distance (km) Brightness Sun altitude
Rises 22:51:14 0° 317° (NW) 2,926 7.9 -22.3°
Reaches altitude 10° 22:53:13 10° 315° (NW) 2,152 7.0 -22.4°
Maximum altitude 22:58:06 72° 232° (SW) 911 4.2 -22.5°
Enters shadow 22:59:57 46° 163° (SSE) 1,237 4.6 -22.5°
